Location: Unspecified
(49.2170°N, 0.0000°E)
Time: 06:23:25
(UTC+00:00)

Explorer 7 - Pass Details

Date: 24 January 2021
Orbit: 484 x 677 km, 50.3° (Epoch: 04 March)

Event Time Altitude Azimuth Distance (km) Brightness Sun altitude
Exits shadow 04:34:31 23° 109° (ESE) 1,141 9.0 -30.2°
Drops below altitude 10° 04:36:33 10° 85° (E) 1,761 10.3 -29.9°
Sets 04:39:01 0° 74° (ENE) 2,687 11.5 -29.5°
